When you browse on this site, cookies collect data to enhance your experience and personalize the content and advertising you see.
Visit our Privacy Policy to learn more. By continuing to use the site, you agree to this use of cookies and data.
  • In Germany
  • List of Countries
  • For 7 days
  • Water Temperature
  • Weather Map
  • Weather Widgets
  • user-avatar
    Login

    Hourly Weather Dalniy

    Today, 20 February, Thursday

    Time Temperature Precipitation Wind Pressure Humidity
    00:00 -2°C° 0.1 mm 3 mps 742 mmHg 96%
    01:00 -2°C° 0.1 mm 3 mps 742 mmHg 95%
    02:00 -2°C° 0 mm 3 mps 742 mmHg 95%
    03:00 -3°C° 0 mm 2 mps 742 mmHg 95%
    04:00 -4°C° 0 mm 2 mps 742 mmHg 95%
    05:00 -4°C° 0 mm 2 mps 742 mmHg 95%
    06:00 -4°C° 0 mm 2 mps 742 mmHg 95%
    07:00 -5°C° 0 mm 2 mps 742 mmHg 95%
    08:00 -4°C° 0 mm 2 mps 743 mmHg 93%
    09:00 -4°C° 0 mm 3 mps 743 mmHg 92%
    10:00 -2°C° 0 mm 3 mps 744 mmHg 91%
    11:00 -1°C° 0 mm 3 mps 744 mmHg 90%
    12:00 -1°C° 0 mm 3 mps 744 mmHg 90%
    13:00 -1°C° 0 mm 4 mps 744 mmHg 90%
    14:00 0°C° 0 mm 3 mps 744 mmHg 88%
    15:00 0°C° 0 mm 3 mps 744 mmHg 86%
    16:00 0°C° 0 mm 3 mps 744 mmHg 84%
    17:00 -1°C° 0 mm 3 mps 744 mmHg 87%
    18:00 -2°C° 0 mm 3 mps 744 mmHg 89%
    19:00 -4°C° 0 mm 2 mps 744 mmHg 91%
    20:00 -4°C° 0 mm 2 mps 745 mmHg 92%
    21:00 -5°C° 0 mm 3 mps 745 mmHg 92%
    22:00 -5°C° 0 mm 3 mps 745 mmHg 92%
    23:00 -5°C° 0 mm 3 mps 745 mmHg 92%

    Tomorrow, 21 February, Friday

    Time Temperature Precipitation Wind Pressure Humidity
    00:00 -6°C° 0 mm 3 mps 745 mmHg 93%
    01:00 -6°C° 0 mm 3 mps 745 mmHg 93%
    02:00 -6°C° 0 mm 3 mps 745 mmHg 93%
    03:00 -6°C° 0 mm 3 mps 746 mmHg 92%
    04:00 -5°C° 0 mm 2 mps 746 mmHg 91%
    05:00 -6°C° 0 mm 3 mps 746 mmHg 92%
    06:00 -7°C° 0 mm 3 mps 746 mmHg 92%
    07:00 -7°C° 0 mm 3 mps 746 mmHg 92%
    08:00 -6°C° 0 mm 3 mps 747 mmHg 91%
    09:00 -5°C° 0 mm 3 mps 747 mmHg 90%
    10:00 -4°C° 0 mm 4 mps 747 mmHg 88%
    17:00 -1°C° 0 mm 2 mps 749 mmHg 89%
    18:00 -2°C° 0 mm 2 mps 749 mmHg 91%
    19:00 -2°C° 0 mm 2 mps 750 mmHg 92%
    20:00 -2°C° 0 mm 2 mps 750 mmHg 93%
    21:00 -3°C° 0 mm 2 mps 750 mmHg 94%
    22:00 -3°C° 0 mm 2 mps 751 mmHg 94%
    23:00 -4°C° 0 mm 2 mps 751 mmHg 94%

    Day after tomorrow, 22 February, Saturday

    Time Temperature Precipitation Wind Pressure Humidity
    00:00 -4°C° 0 mm 2 mps 751 mmHg 94%
    01:00 -5°C° 0 mm 2 mps 752 mmHg 94%
    02:00 -5°C° 0 mm 2 mps 752 mmHg 94%
    03:00 -4°C° 0 mm 1 mps 752 mmHg 94%
    04:00 -6°C° 0 mm 1 mps 752 mmHg 94%
    05:00 -6°C° 0 mm 1 mps 753 mmHg 95%
    06:00 -7°C° 0 mm 1 mps 753 mmHg 95%
    07:00 -7°C° 0 mm 1 mps 753 mmHg 95%
    08:00 -6°C° 0 mm 1 mps 753 mmHg 94%
    09:00 -4°C° 0 mm 1 mps 754 mmHg 92%
    10:00 -3°C° 0 mm 1 mps 754 mmHg 91%
    11:00 -2°C° 0 mm 1 mps 754 mmHg 90%
    12:00 -1°C° 0 mm 1 mps 754 mmHg 90%
    13:00 0°C° 0 mm 1 mps 755 mmHg 90%
    14:00 0°C° 0 mm 1 mps 755 mmHg 90%
    15:00 0°C° 0 mm 1 mps 755 mmHg 91%
    16:00 0°C° 0 mm 1 mps 755 mmHg 92%
    17:00 -1°C° 0 mm 1 mps 755 mmHg 93%
    18:00 -3°C° 0 mm 1 mps 755 mmHg 93%
    19:00 -4°C° 0 mm 1 mps 755 mmHg 94%
    20:00 -6°C° 0 mm 2 mps 755 mmHg 94%
    21:00 -6°C° 0 mm 2 mps 756 mmHg 93%
    22:00 -6°C° 0 mm 2 mps 756 mmHg 93%
    23:00 -5°C° 0 mm 2 mps 756 mmHg 92%

    23 February, Sunday

    Time Temperature Precipitation Wind Pressure Humidity
    00:00 -3°C° 0 mm 1 mps 756 mmHg 92%
    01:00 -3°C° 0 mm 1 mps 756 mmHg 91%
    02:00 -3°C° 0 mm 1 mps 755 mmHg 91%
    03:00 -5°C° 0 mm 2 mps 755 mmHg 91%
    04:00 -5°C° 0 mm 2 mps 755 mmHg 91%
    05:00 -5°C° 0 mm 2 mps 755 mmHg 91%
    06:00 -6°C° 0 mm 2 mps 755 mmHg 91%
    07:00 -6°C° 0 mm 2 mps 754 mmHg 91%
    08:00 -6°C° 0 mm 2 mps 754 mmHg 91%
    09:00 -6°C° 0 mm 3 mps 754 mmHg 90%
    10:00 -6°C° 0 mm 3 mps 754 mmHg 90%
    11:00 -5°C° 0 mm 3 mps 753 mmHg 88%
    12:00 -4°C° 0 mm 4 mps 753 mmHg 86%
    13:00 -3°C° 0 mm 4 mps 752 mmHg 84%
    14:00 -4°C° 0 mm 4 mps 752 mmHg 86%
    15:00 -4°C° 0 mm 4 mps 751 mmHg 87%
    16:00 -5°C° 0 mm 4 mps 750 mmHg 88%
    17:00 -7°C° 0 mm 4 mps 750 mmHg 90%
    18:00 -8°C° 0 mm 4 mps 750 mmHg 92%
    19:00 -9°C° 0 mm 4 mps 749 mmHg 94%
    20:00 -10°C° 0 mm 4 mps 749 mmHg 94%
    21:00 -10°C° 0 mm 4 mps 748 mmHg 94%
    22:00 -10°C° 0 mm 4 mps 748 mmHg 94%
    23:00 -10°C° 0 mm 4 mps 747 mmHg 93%

    24 February, Monday

    Time Temperature Precipitation Wind Pressure Humidity
    00:00 -10°C° 0 mm 4 mps 747 mmHg 93%
    01:00 -10°C° 0 mm 4 mps 746 mmHg 92%
    02:00 -10°C° 0 mm 4 mps 746 mmHg 92%
    03:00 -9°C° 0 mm 4 mps 745 mmHg 92%
    04:00 -9°C° 0 mm 4 mps 745 mmHg 92%
    05:00 -10°C° 0 mm 5 mps 745 mmHg 91%
    06:00 -10°C° 0 mm 5 mps 744 mmHg 91%
    07:00 -10°C° 0 mm 5 mps 744 mmHg 90%
    08:00 -10°C° 0 mm 5 mps 744 mmHg 90%
    09:00 -10°C° 0 mm 5 mps 743 mmHg 89%
    10:00 -8°C° 0 mm 5 mps 743 mmHg 88%
    11:00 -8°C° 0 mm 5 mps 743 mmHg 88%
    12:00 -9°C° 0 mm 6 mps 742 mmHg 87%
    13:00 -9°C° 0 mm 6 mps 742 mmHg 86%
    14:00 -9°C° 0 mm 6 mps 741 mmHg 87%
    15:00 -9°C° 0 mm 6 mps 741 mmHg 88%
    16:00 -9°C° 0 mm 6 mps 740 mmHg 89%
    17:00 -9°C° 0 mm 6 mps 740 mmHg 89%
    18:00 -9°C° 0 mm 6 mps 740 mmHg 89%
    19:00 -9°C° 0 mm 6 mps 740 mmHg 89%
    20:00 -9°C° 0.1 mm 6 mps 739 mmHg 89%
    21:00 -9°C° 0.1 mm 6 mps 739 mmHg 89%
    22:00 -9°C° 0.1 mm 6 mps 739 mmHg 90%
    23:00 -9°C° 0.2 mm 6 mps 738 mmHg 91%

    25 February, Tuesday

    Time Temperature Precipitation Wind Pressure Humidity
    00:00 -8°C° 0.2 mm 5 mps 738 mmHg 92%
    01:00 -8°C° 0.2 mm 5 mps 737 mmHg 93%
    02:00 -8°C° 0.2 mm 5 mps 737 mmHg 93%
    03:00 -8°C° 0.2 mm 5 mps 737 mmHg 93%
    04:00 -7°C° 0.2 mm 5 mps 737 mmHg 94%
    05:00 -7°C° 0.3 mm 5 mps 736 mmHg 93%
    06:00 -7°C° 0.3 mm 4 mps 736 mmHg 93%
    07:00 -5°C° 0.3 mm 4 mps 736 mmHg 93%
    08:00 -4°C° 0 mm 4 mps 736 mmHg 89%
    09:00 -4°C° 0 mm 5 mps 737 mmHg 86%
    10:00 -2°C° 0 mm 5 mps 737 mmHg 83%
    11:00 -2°C° 0 mm 5 mps 737 mmHg 80%
    12:00 -2°C° 0 mm 5 mps 738 mmHg 78%
    13:00 -2°C° 0 mm 5 mps 739 mmHg 76%
    14:00 -2°C° 0 mm 5 mps 739 mmHg 78%
    15:00 -2°C° 0 mm 4 mps 740 mmHg 79%
    16:00 -2°C° 0 mm 4 mps 740 mmHg 80%
    17:00 -4°C° 0 mm 3 mps 741 mmHg 83%
    18:00 -5°C° 0 mm 3 mps 742 mmHg 85%
    19:00 -6°C° 0 mm 3 mps 742 mmHg 88%
    20:00 -7°C° 0 mm 3 mps 743 mmHg 89%
    21:00 -6°C° 0 mm 2 mps 743 mmHg 91%
    22:00 -7°C° 0 mm 2 mps 743 mmHg 92%
    23:00 -7°C° 0 mm 2 mps 744 mmHg 92%
    Show more